This is the latest recevied weather packets stored in our database for station/object K3BAY-1. If no packets are shown the sender has not sent any weather packets the latest 10 day(s).
| Time | Temp. | Humidity | Pressure | Rain* | Wind** | Luminosity | Snow |
|---|---|---|---|---|---|---|---|
| 1777303648 | 15.56° C | 74% | 1024.4 hPa | 0 mm | - | 43 W/m² | - |
| 1777303346 | 15° C | 76% | 1024.1 hPa | 0 mm | - | 43 W/m² | - |
| 1777303043 | 14.44° C | 79% | 1024.1 hPa | 0 mm | - | 44 W/m² | - |
| 1777302740 | 14.44° C | 80% | 1023.7 hPa | 0 mm | - | 44 W/m² | - |
| 1777302439 | 14.44° C | 79% | 1023.7 hPa | 0 mm | - | 43 W/m² | - |
| 1777302136 | 14.44° C | 76% | 1023.7 hPa | 0 mm | - | 43 W/m² | - |
| 1777301833 | 14.44° C | 77% | 1023.4 hPa | 0 mm | - | 43 W/m² | - |
| 1777301531 | 13.89° C | 80% | 1023.4 hPa | 0 mm | - | 42 W/m² | - |
| 1777301228 | 13.89° C | 79% | 1023.4 hPa | 0 mm | - | 42 W/m² | - |
| 1777300924 | 14.44° C | 79% | 1023.1 hPa | 0 mm | - | 44 W/m² | - |
| 1777300623 | 14.44° C | 81% | 1023.1 hPa | 0 mm | - | 44 W/m² | - |
| 1777300319 | 14.44° C | 81% | 1023.1 hPa | 0 mm | - | 44 W/m² | - |
| 1777300016 | 13.89° C | 83% | 1023.1 hPa | 0 mm | - | 44 W/m² | - |
| 1777299713 | 14.44° C | 81% | 1023.1 hPa | 0 mm | - | 44 W/m² | - |
| 1777299411 | 14.44° C | 81% | 1023.1 hPa | 0 mm | - | 45 W/m² | - |
| 1777299108 | 13.89° C | 82% | 1023.1 hPa | 0 mm | - | 45 W/m² | - |
| 1777298805 | 13.89° C | 81% | 1023.1 hPa | 0 mm | - | 44 W/m² | - |
| 1777298501 | 13.89° C | 82% | 1023.1 hPa | 0 mm | - | 44 W/m² | - |
| 1777298198 | 13.89° C | 81% | 1023.1 hPa | 0 mm | - | 45 W/m² | - |
| 1777297893 | 13.33° C | 81% | 1023.1 hPa | 0 mm | - | 45 W/m² | - |
| 1777297591 | 13.89° C | 79% | 1022.7 hPa | 0 mm | - | 45 W/m² | - |
| 1777297287 | 13.89° C | 81% | 1023.1 hPa | 0 mm | - | 44 W/m² | - |
| 1777296985 | 13.89° C | 78% | 1023.1 hPa | 0 mm | - | 44 W/m² | - |
| 1777296681 | 13.33° C | 80% | 1023.4 hPa | 0 mm | - | 44 W/m² | - |
| 1777296368 | 13.33° C | 80% | 1023.4 hPa | 0 mm | - | 45 W/m² | - |
* Rain latest hour (hover to see other rain measurements)
** Current wind speed in m/s (hover to see current wind gust speed)